Weather History for Chitose AB, Japan

Change the Weather History Date:

Tuesday, November 5, 2013

  Actual Average Record
Temperature  
Mean Temperature 44 °F -  
Max Temperature 57 °F 43 °F 62 °F (2000)
Min Temperature 32 °F 25 °F 26 °F (2001)
Degree Days  
Heating Degree Days 20    
Moisture  
Dew Point 35 °F    
Average Humidity 75    
Maximum Humidity 100    
Minimum Humidity 38    
Precipitation  
Precipitation 0.00 in - - ()
Sea Level Pressure  
Sea Level Pressure 30.12 in    
Wind  
Wind Speed 4 mph ()    
Max Wind Speed 8 mph    
Max Gust Speed -    
Visibility 6.2 miles    
Events      
Averages and records for this station are not official NWS values.
T = Trace of Precipitation, MM = Missing Value Source: Averaged Metar Reports

Daily Weather History Graph

Daily Weather History Graph

Search for Another Location

Airport:

Trip Planner

Search our weather history database for the weather conditions in past years. The results will help you decide how hot, cold, wet, or windy it might be!

Date:

Astronomy

Nov. 05, 2013 Rise Set
Actual Time 6:11 AM JST 4:21 PM JST
Civil Twilight 5:42 AM JST 4:50 PM JST
Nautical Twilight 5:08 AM JST 5:24 PM JST
Astronomical Twilight 4:35 AM JST 5:57 PM JST
Moon 7:47 AM JST (11/5) 5:43 PM JST (11/5)
Length of Visible Light 11h 08m
Length of Day
10h 09m
Waxing Crescent, 3% of the Moon is Illuminated
Nov 5
Waxing Crescent
Nov 10
First Quarter
Nov 18
Full
Nov 26
Last Quarter
Dec 3
New

Hourly Weather History & Observations

Time (JST) Temp. Windchill Dew Point Humidity Pressure Visibility Wind Dir Wind Speed Gust Speed Precip Events Conditions
12:00 AM 37.4 °F 34.9 °F 35.6 °F 93% 30.04 in 6.2 mi North 3.5 mph - N/A   Scattered Clouds
12:30 AM 37.4 °F 32.8 °F 33.8 °F 87% 30.04 in 6.2 mi NNW 5.8 mph - N/A   Partly Cloudy
1:00 AM 37.4 °F 32.1 °F 35.6 °F 93% 30.06 in 6.2 mi North 6.9 mph - N/A   Scattered Clouds
1:30 AM 41.0 °F 36.4 °F 39.2 °F 93% 30.06 in 6.2 mi NNW 6.9 mph - N/A   Mostly Cloudy
2:00 AM 37.4 °F 32.8 °F 35.6 °F 93% 30.06 in 6.2 mi NNW 5.8 mph - N/A   Partly Cloudy
2:30 AM 37.4 °F 32.8 °F 37.4 °F 100% 30.06 in 6.2 mi NW 5.8 mph - N/A   Partly Cloudy
3:00 AM 35.6 °F 30.7 °F 33.8 °F 93% 30.06 in 6.2 mi NNW 5.8 mph - N/A   Partly Cloudy
3:30 AM 37.4 °F 32.8 °F 37.4 °F 100% 30.09 in 6.2 mi NW 5.8 mph - N/A   Mostly Cloudy
4:00 AM 39.2 °F - 37.4 °F 93% 30.09 in 6.2 mi North 2.3 mph - N/A   Partly Cloudy
4:30 AM 37.4 °F 34.9 °F 35.6 °F 93% 30.09 in 6.2 mi NW 3.5 mph - N/A   Scattered Clouds
5:00 AM 35.6 °F 32.8 °F 35.6 °F 100% 30.09 in 6.2 mi NNE 3.5 mph - N/A   Scattered Clouds
5:30 AM 35.6 °F - 33.8 °F 93% 30.09 in 6.2 mi Calm Calm - N/A   Scattered Clouds
6:00 AM 35.6 °F - 33.8 °F 93% 30.09 in 6.2 mi East 1.2 mph - N/A   Scattered Clouds
6:30 AM 35.6 °F - 33.8 °F 93% 30.12 in 6.2 mi Variable 2.3 mph - N/A   Mostly Cloudy
7:00 AM 35.6 °F - 33.8 °F 93% 30.12 in 6.2 mi Calm Calm - N/A   Mostly Cloudy
7:30 AM 37.4 °F - 35.6 °F 93% 30.15 in 6.2 mi SW 1.2 mph - N/A   Mostly Cloudy
8:00 AM 39.2 °F - 39.2 °F 100% 30.15 in 6.2 mi East 1.2 mph - N/A   Scattered Clouds
8:30 AM 42.8 °F - 41.0 °F 93% 30.15 in 6.2 mi East 2.3 mph - N/A   Scattered Clouds
9:00 AM 46.4 °F 45.2 °F 42.8 °F 87% 30.12 in 6.2 mi ESE 3.5 mph - N/A   Partly Cloudy
9:30 AM 50.0 °F - 41.0 °F 71% 30.12 in 6.2 mi Variable 2.3 mph - N/A   Partly Cloudy
10:00 AM 51.8 °F - 37.4 °F 58% 30.12 in 6.2 mi SSE 3.5 mph - N/A   Partly Cloudy
10:30 AM 53.6 °F - 37.4 °F 54% 30.12 in 6.2 mi SSE 3.5 mph - N/A   Partly Cloudy
11:00 AM 55.4 °F - 33.8 °F 44% 30.12 in 6.2 mi Variable 2.3 mph - N/A   Partly Cloudy
11:30 AM 57.2 °F - 35.6 °F 44% 30.12 in 6.2 mi South 8.1 mph - N/A   Partly Cloudy
12:00 PM 57.2 °F - 33.8 °F 41% 30.09 in 6.2 mi Variable 5.8 mph - N/A   Scattered Clouds
12:30 PM 57.2 °F - 33.8 °F 41% 30.09 in 6.2 mi Variable 2.3 mph - N/A   Partly Cloudy
1:00 PM 57.2 °F - 35.6 °F 44% 30.09 in 6.2 mi South 4.6 mph - N/A   Partly Cloudy
1:30 PM 57.2 °F - 33.8 °F 41% 30.09 in 6.2 mi ENE 6.9 mph - N/A   Partly Cloudy
2:00 PM 57.2 °F - 33.8 °F 41% 30.09 in 6.2 mi NE 4.6 mph - N/A   Partly Cloudy
2:30 PM 57.2 °F - 32.0 °F 38% 30.09 in 6.2 mi Variable 1.2 mph - N/A   Partly Cloudy
3:00 PM 57.2 °F - 35.6 °F 44% 30.09 in 6.2 mi NE 4.6 mph - N/A   Partly Cloudy
3:30 PM 55.4 °F - 33.8 °F 44% 30.12 in 6.2 mi East 5.8 mph - N/A   Partly Cloudy
4:00 PM 55.4 °F - 33.8 °F 44% 30.12 in 6.2 mi ENE 4.6 mph - N/A   Partly Cloudy
4:30 PM 53.6 °F - 33.8 °F 47% 30.12 in 6.2 mi NE 5.8 mph - N/A   Partly Cloudy
5:00 PM 50.0 °F - 35.6 °F 58% 30.12 in 6.2 mi ENE 3.5 mph - N/A   Partly Cloudy
5:30 PM 48.2 °F - 35.6 °F 62% 30.12 in 6.2 mi Variable 2.3 mph - N/A   Partly Cloudy
6:00 PM 44.6 °F - 35.6 °F 71% 30.15 in 6.2 mi Variable 2.3 mph - N/A   Partly Cloudy
6:30 PM 41.0 °F - 33.8 °F 76% 30.15 in 6.2 mi Variable 2.3 mph - N/A   Partly Cloudy
7:00 PM 42.8 °F - 35.6 °F 76% 30.15 in 6.2 mi Variable 1.2 mph - N/A   Partly Cloudy
7:30 PM 41.0 °F - 35.6 °F 81% 30.15 in 6.2 mi Variable 1.2 mph - N/A   Partly Cloudy
8:00 PM 41.0 °F - 33.8 °F 76% 30.15 in 6.2 mi Variable 1.2 mph - N/A   Partly Cloudy
8:30 PM 39.2 °F - 33.8 °F 81% 30.18 in 6.2 mi Variable 1.2 mph - N/A   Partly Cloudy
9:00 PM 37.4 °F - 33.8 °F 87% 30.18 in 6.2 mi SE 2.3 mph - N/A   Partly Cloudy
9:30 PM 37.4 °F - 33.8 °F 87% 30.18 in 6.2 mi South 2.3 mph - N/A   Partly Cloudy
10:00 PM 35.6 °F - 32.0 °F 87% 30.18 in 6.2 mi Variable 1.2 mph - N/A   Partly Cloudy
10:30 PM 35.6 °F - 33.8 °F 93% 30.18 in 6.2 mi Variable 2.3 mph - N/A   Partly Cloudy
11:00 PM 32.0 °F 28.7 °F 30.2 °F 93% 30.18 in 6.2 mi South 3.5 mph - N/A   Partly Cloudy
11:30 PM 33.8 °F 30.8 °F 32.0 °F 93% 30.18 in 6.2 mi South 3.5 mph - N/A   Partly Cloudy